(238680) = 2000 CK134 = 2005 EA209

Discovered at Kitt Peak on 2005-03-04 by Spacewatch.

Orbit

Orbit type: Main Belt

Note: WebGL enabled browser required.

epoch2024-03-31.0
epoch JD2460400.5
perihelion date2020-08-14.48128
perihelion JD2459075.98128
argument of perihelion (°)331.14734
ascending node (°)304.41079
inclination (°)2.20154
eccentricity0.1091145
perihelion distance (AU)2.5063000
Tisserand w.r.t. Jupiter3.3
ΔV w.r.t. Earth (km/sec)9.9
semimajor axis (AU)2.8132684
mean anomaly (°)276.65925
mean daily motion (°/day)0.20887530
aphelion distance (AU)3.120
period (years)4.72
P-vector [x]0.09714931
P-vector [y]-0.90561006
P-vector [z]-0.41283462
Q-vector [x]0.99476510
Q-vector [y]0.07514431
Q-vector [z]0.06925121
absolute magnitude16.32
phase slope0.15
uncertainty0
referenceMPEC 2024-F28
observations used282
oppositions16
arc length (days)8809
first opposition used2000
last opposition used2024
residual rms (arc-secs)0.69
perturbers coarse indicatorM-v
perturbers precise indicator003Ek
first observation date used2000-02-04.0
last observation date used2024-03-18.0
computer nameMPCLINUX
JD of orbit computation2456731.432750
perihelion JD uncertainty (days)1.5470E-04
argument of perihelion uncertainty (°)1.6111E-04
ascending node uncertainty (°)1.5780E-04
inclination uncertainty (°)4.9104E-06
eccentricity uncertainty 4.7618E-08
perihelion distance uncertainty (AU)1.2428E-07
Minimum Orbit Intersection Distances (in AU)
for orbit epoch: 2460400.5, reference: E2024-GD4
Mercury2.0441
Venus1.77903
Earth1.49001
Mars1.02627
Jupiter1.97504
Saturn5.92619
Uranus15.4853
Neptune26.8165

Observations

290 total observations over interval: 2000 02 04.42779 – 2024 03 18.403618
These data are available for download (format description).

Date (UT) J2000 RA J2000 Dec Magn Location Ref
2000 02 04.42779 09 42 29.27 +12 49 07.3 19.8 V 691 – Steward Observatory, Kitt Peak-Spacewatch MPS 16871
2000 02 04.44937 09 42 28.10 +12 49 11.2 20.3 V 691 – Steward Observatory, Kitt Peak-Spacewatch MPS 16871
2000 02 04.47067 09 42 26.98 +12 49 16.0 19.9 V 691 – Steward Observatory, Kitt Peak-Spacewatch MPS 16871
2000 02 08.31346 09 39 07.15 +13 03 27.8 20.2 V 691 – Steward Observatory, Kitt Peak-Spacewatch MPS 16871
2000 02 08.33518 09 39 05.98 +13 03 32.9 20.3 V 691 – Steward Observatory, Kitt Peak-Spacewatch MPS 16871
2000 02 08.35691 09 39 04.79 +13 03 37.7 20.5 V 691 – Steward Observatory, Kitt Peak-Spacewatch MPS 16871
2002 09 14.43894 00 23 34.30 +05 39 07.9 19.5 R 644 – Palomar Mountain/NEAT MPS 208943
2002 09 14.44362 00 23 34.07 +05 39 07.3 20.2 R 644 – Palomar Mountain/NEAT MPS 208943
2002 09 14.44936 00 23 33.81 +05 39 06.2 20.9 R 644 – Palomar Mountain/NEAT MPS 208943
2002 09 14.45395 00 23 33.60 +05 39 04.7 20.0 R 644 – Palomar Mountain/NEAT MPS 208943
2002 09 14.46108 00 23 33.23 +05 39 03.4 20.1 R 644 – Palomar Mountain/NEAT MPS 208943
2002 09 14.46571 00 23 33.03 +05 39 01.9 19.5 R 644 – Palomar Mountain/NEAT MPS 208943
2005 03 04.18911 11 07 58.21 +03 12 02.6 20.6 V 691 – Steward Observatory, Kitt Peak-Spacewatch MPS 129331
2005 03 04.21472 11 07 56.88 +03 12 09.7 20.4 V 691 – Steward Observatory, Kitt Peak-Spacewatch MPS 129331
2005 03 04.24105 11 07 55.53 +03 12 17.0 20.1 V 691 – Steward Observatory, Kitt Peak-Spacewatch MPS 129331
2005 03 11.30637 11 01 58.82 +03 45 23.4 19.6 R G96 – Mt. Lemmon Survey MPS 129331
2005 03 11.31306 11 01 58.48 +03 45 25.2 19.7 R G96 – Mt. Lemmon Survey MPS 129331
2005 03 11.31971 11 01 58.12 +03 45 27.0 19.5 R G96 – Mt. Lemmon Survey MPS 129331
2005 03 11.32640 11 01 57.78 +03 45 29.2 19.6 R G96 – Mt. Lemmon Survey MPS 129331
2005 04 09.14446 10 42 39.47 +05 39 31.1 21.0 V 691 – Steward Observatory, Kitt Peak-Spacewatch MPS 138464
2005 04 09.16028 10 42 39.07 +05 39 33.3 21.0 V 691 – Steward Observatory, Kitt Peak-Spacewatch MPS 138464
2005 04 09.16097 10 42 39.01 +05 39 32.9 19.1 R G96 – Mt. Lemmon Survey MPS 138464
2005 04 09.16723 10 42 38.85 +05 39 34.2 20.4 R G96 – Mt. Lemmon Survey MPS 138464
2005 04 09.17352 10 42 38.66 +05 39 35.0 19.3 R G96 – Mt. Lemmon Survey MPS 138464
2005 04 09.17622 10 42 38.67 +05 39 35.9 21.3 V 691 – Steward Observatory, Kitt Peak-Spacewatch MPS 138464
2005 04 09.17980 10 42 38.51 +05 39 36.0 20.2 R G96 – Mt. Lemmon Survey MPS 138464
2007 10 04.30587 02 05 35.49 +16 08 57.9   691 – Steward Observatory, Kitt Peak-Spacewatch MPS 218671
2007 10 04.32350 02 05 34.69 +16 08 54.4   691 – Steward Observatory, Kitt Peak-Spacewatch MPS 218671
2007 10 04.34111 02 05 33.91 +16 08 50.8   691 – Steward Observatory, Kitt Peak-Spacewatch MPS 218671
2007 10 08.20695 02 02 40.74 +15 55 56.7 20.4 V 691 – Steward Observatory, Kitt Peak-Spacewatch MPS 218671
2007 10 08.22455 02 02 39.93 +15 55 53.7 20.3 V 691 – Steward Observatory, Kitt Peak-Spacewatch MPS 218671
2007 10 08.23980 02 02 39.20 +15 55 49.9 20.2 V 691 – Steward Observatory, Kitt Peak-Spacewatch MPS 218671
2007 10 12.20896 01 59 29.40 +15 40 56.1 20.1 V 691 – Steward Observatory, Kitt Peak-Spacewatch MPS 220546
2007 10 12.22660 01 59 28.50 +15 40 52.0 20.0 V 691 – Steward Observatory, Kitt Peak-Spacewatch MPS 220546
2007 10 12.24425 01 59 27.63 +15 40 47.9 20.5 V 691 – Steward Observatory, Kitt Peak-Spacewatch MPS 220546
2007 10 15.29127 01 56 55.75 +15 28 21.1 20.4 V G96 – Mt. Lemmon Survey MPS 220546
2007 10 15.30031 01 56 55.32 +15 28 18.9 20.1 V G96 – Mt. Lemmon Survey MPS 220546
2007 10 15.30933 01 56 54.81 +15 28 16.4 20.3 V G96 – Mt. Lemmon Survey MPS 220546
2007 10 15.31832 01 56 54.34 +15 28 14.4 20.4 V G96 – Mt. Lemmon Survey MPS 220546
2007 10 20.16993 01 52 46.24 +15 06 58.3 20.4 V 691 – Steward Observatory, Kitt Peak-Spacewatch MPS 222526
2007 10 20.19098 01 52 45.14 +15 06 52.5 20.7 V 691 – Steward Observatory, Kitt Peak-Spacewatch MPS 222526
2007 10 20.20859 01 52 44.18 +15 06 47.8 20.5 V 691 – Steward Observatory, Kitt Peak-Spacewatch MPS 222526
2008 12 29.24137 07 28 58.31 +22 52 57.2 21.0 V 691 – Steward Observatory, Kitt Peak-Spacewatch MPS 270151
2008 12 29.25973 07 28 57.32 +22 52 58.9 20.7 V 691 – Steward Observatory, Kitt Peak-Spacewatch MPS 270151
2008 12 29.27785 07 28 56.24 +22 52 59.6 20.2 V 691 – Steward Observatory, Kitt Peak-Spacewatch MPS 270151
2009 01 02.38630 07 25 07.53 +22 58 54.6 20.8 V G96 – Mt. Lemmon Survey MPS 270151
2009 01 02.39501 07 25 07.06 +22 58 55.3 20.7 V G96 – Mt. Lemmon Survey MPS 270151
2009 01 02.40375 07 25 06.52 +22 58 55.8 20.8 V G96 – Mt. Lemmon Survey MPS 270151
2009 01 02.41244 07 25 06.06 +22 58 56.3 20.8 V G96 – Mt. Lemmon Survey MPS 270151
2010 03 25.21370 12 51 53.93 -08 58 18.2 20.3 V 691 – Steward Observatory, Kitt Peak-Spacewatch MPS 319317
2010 03 25.23141 12 51 52.99 -08 58 13.2 20.6 V 691 – Steward Observatory, Kitt Peak-Spacewatch MPS 319317
2010 03 25.24910 12 51 52.16 -08 58 08.8 20.3 V 691 – Steward Observatory, Kitt Peak-Spacewatch MPS 319317
2010 04 03.445478 12 44 20.352 -08 16 04.39 19.71 i F51 – Pan-STARRS 1, Haleakala MPS 338888
2010 04 03.453752 12 44 19.932 -08 16 02.06 19.83 i F51 – Pan-STARRS 1, Haleakala MPS 338888
2010 04 10.30425 12 38 40.12 -07 42 04.8 19.9 V 703 – Catalina Sky Survey MPS 322212
2010 04 10.31059 12 38 39.84 -07 42 03.4 20.4 V 703 – Catalina Sky Survey MPS 322212
2010 04 10.31697 12 38 39.55 -07 42 00.7 20.4 V 703 – Catalina Sky Survey MPS 322212
2010 04 10.32329 12 38 39.12 -07 42 00.2 19.7 V 703 – Catalina Sky Survey MPS 322212
2010 04 14.24757 12 35 31.66 -07 22 22.4 19.9 V G96 – Mt. Lemmon Survey MPS 322212
2010 04 14.25411 12 35 31.38 -07 22 19.7 19.5 V G96 – Mt. Lemmon Survey MPS 322212
2010 04 14.26079 12 35 31.02 -07 22 17.9 19.7 V G96 – Mt. Lemmon Survey MPS 322212
2010 04 14.26736 12 35 30.69 -07 22 16.2 19.9 V G96 – Mt. Lemmon Survey MPS 322212
2011 05 28.41829 21 30 51.98 -15 04 22.5 20.5 V G96 – Mt. Lemmon Survey MPS 384600
2011 05 28.42350 21 30 52.16 -15 04 21.1 20.8 V G96 – Mt. Lemmon Survey MPS 384600
2011 05 28.42870 21 30 52.34 -15 04 19.9 21.4 V G96 – Mt. Lemmon Survey MPS 384600
2011 05 28.43394 21 30 52.56 -15 04 19.0 20.8 V G96 – Mt. Lemmon Survey MPS 384600
2011 07 22.44275 21 27 02.636 -14 34 54.22 19.9 r F51 – Pan-STARRS 1, Haleakala MPS 387735
2011 07 22.45345 21 27 02.152 -14 34 55.70 19.9 r F51 – Pan-STARRS 1, Haleakala MPS 387735
2011 07 22.46630 21 27 01.563 -14 34 57.59 19.8 i F51 – Pan-STARRS 1, Haleakala MPS 387735
2011 07 22.47797 21 27 01.028 -14 34 59.16 19.7 i F51 – Pan-STARRS 1, Haleakala MPS 387735
2011 08 03.49005 21 17 25.288 -15 07 34.45 20.3 g F51 – Pan-STARRS 1, Haleakala MPS 388582
2011 08 03.50083 21 17 24.723 -15 07 36.26 20.2 g F51 – Pan-STARRS 1, Haleakala MPS 388582
2011 10 21.08971 20 57 18.72 -15 54 25.9 21.6 V G96 – Mt. Lemmon Survey MPS 396100
2011 10 21.09786 20 57 19.04 -15 54 24.8 21.3 V G96 – Mt. Lemmon Survey MPS 396100
2011 10 21.10605 20 57 19.33 -15 54 23.1 21.3 V G96 – Mt. Lemmon Survey MPS 396100
2011 10 21.11425 20 57 19.62 -15 54 22.1 21.7 V G96 – Mt. Lemmon Survey MPS 396100
2012 10 22.544388 03 43 26.172 +22 51 26.29 20.8 w F51 – Pan-STARRS 1, Haleakala MPS 439281
2012 10 22.558934 03 43 25.547 +22 51 24.88 20.7 w F51 – Pan-STARRS 1, Haleakala MPS 439281
2012 10 22.573403 03 43 24.926 +22 51 23.18 20.8 w F51 – Pan-STARRS 1, Haleakala MPS 439281
2012 11 04.20683 03 33 24.98 +22 21 53.8 20.7 V 691 – Steward Observatory, Kitt Peak-Spacewatch MPS 441372
2012 11 04.22453 03 33 24.04 +22 21 51.6 21.1 V 691 – Steward Observatory, Kitt Peak-Spacewatch MPS 441372
2012 11 04.24222 03 33 23.10 +22 21 48.2 20.7 V 691 – Steward Observatory, Kitt Peak-Spacewatch MPS 441372
2012 11 06.17055 03 31 40.85 +22 16 07.1 20.8 V 691 – Steward Observatory, Kitt Peak-Spacewatch MPS 441372
2012 11 06.18068 03 31 40.27 +22 16 05.0 21.0 V 691 – Steward Observatory, Kitt Peak-Spacewatch MPS 441372
2012 11 06.19080 03 31 39.70 +22 16 03.5 20.6 V 691 – Steward Observatory, Kitt Peak-Spacewatch MPS 441372
2012 11 20.26495 03 18 46.36 +21 27 36.3 20.1 V G96 – Mt. Lemmon Survey MPS 444712
2012 11 20.27368 03 18 45.86 +21 27 34.3 19.9 V G96 – Mt. Lemmon Survey MPS 444712
